Regional Weather Roundup
Issued by NWS

Home | Current Version | Previous Version | Text Only | Print | Product List | Glossary Off
Versions: 1 2 3 4 5 6 7 8 9 10 11 12 13 14 15 16 17 18 19 20 21 22 23 24 25 26 27 28 29 30 31 32 33 34 35 36 37 38 39 40 41 42 43 44 45 46 47 48 49 50

000
ASUS43 KLMK 272310
RWRKY
KENTUCKY REGIONAL WEATHER ROUNDUP
NATIONAL WEATHER SERVICE LOUISVILLE KY
700 PM EDT THU JUL 27 2017

NOTE "FAIR" INDICATES FEW OR NO CLOUDS BELOW 12,000 FEET
WITH NO SIGNIFICANT WEATHER AND/OR OBSTRUCTIONS TO VISIBILITY.

KYZ001>023-026-027-061>063-070>075-280000-
WESTERN AND SOUTH CENTRAL KENTUCKY

CITY           SKY/WX    TMP DP  RH WIND       PRES   REMARKS
PADUCAH        CLOUDY    81  73  76 SW3       29.89S
HENDERSON      PTSUNNY   82  77  84 S7        29.88F HX  90
OWENSBORO      CLOUDY    81  75  82 S5        29.89S
HOPKINSVILLE   CLOUDY    80  72  77 N8        29.91R
BOWLING GREEN  LGT RAIN  76  73  91 NE3       29.92S
GLASGOW        RAIN      74  69  83 NW8       29.93R
$$

KYZ024-025-028>034-038-045-046-053-280000-
NORTH CENTRAL KENTUCKY

CITY           SKY/WX    TMP DP  RH WIND       PRES   REMARKS
LOUISVILLE/SDF PTSUNNY   86  72  62 W12       29.87S HX  92
LOUISVILLE/LOU CLOUDY    86  74  67 W7        29.88S HX  94
FORT KNOX      CLOUDY    80  74  83 SW6       29.89S
$$

KYZ035>037-039>044-047>052-055>060-089>105-280000-
NORTHEAST KENTUCKY

CITY           SKY/WX    TMP DP  RH WIND       PRES   REMARKS
LEXINGTON      MOSUNNY   84  72  67 W3        29.90F
COVINGTON      CLOUDY    82  73  74 N5        29.88S
FRANKFORT      LGT RAIN  81  74  79 W3        29.89S
$$

KYZ054-064>069-076>088-106>120-280000-
SOUTHEAST KENTUCKY

CITY           SKY/WX    TMP DP  RH WIND       PRES   REMARKS
JACKSON        RAIN      71  70  96 CALM      29.97R FOG
LONDON         CLOUDY    79  73  82 NE6       29.94S THUNDER
SOMERSET       PTSUNNY   73  68  83 N5        29.94R
MIDDLESBORO    CLOUDY    80  74  82 CALM      29.95S
MONTICELLO     NOT AVBL
$$





USA.gov is the U.S. government's official web portal to all federal, state and local government web resources and services.